Regional Weather Roundup
Issued by NWS

Home | Current Version | Previous Version | Graphics & Text | Print | Product List | Glossary On
Versions: 1 2 3 4 5 6 7 8 9 10 11 12 13 14 15 16 17 18 19 20 21 22 23 24 25 26 27 28
000
ASUS45 KGTF 270610
RWRMT
MONTANA HOURLY WEATHER ROUNDUP
NATIONAL WEATHER SERVICE GREAT FALLS MT
1200 AM MDT MON APR 27 2015

NOTE: "FAIR" INDICATES FEW OR NO CLOUDS BELOW 12000 FEET WITH NO
SIGNIFICANT WEATHER AND/OR OBSTRUCTIONS TO VISIBILITY.

MTZ001>007-043-270700-
WEST OF THE DIVIDE

CITY           SKY/WX    TMP DP  RH WIND       PRES   REMARKS
KALISPELL      PTCLDY    37  35  92 CALM      30.24R
MISSOULA       CLOUDY    42  39  89 CALM      30.29R
BUTTE          CLOUDY    33  29  85 CALM      30.26R
DEER LODGE       N/A     34  30  86 CALM      30.31R
EUREKA           N/A     39  32  75 SE5       30.23S
HAMILTON         N/A     41  37  87 S3        30.28R
LIBBY            N/A     36  27  69 SE3       30.25R
$$

MTZ008-052>055-270700-
SOUTHWEST MONTANA

CITY           SKY/WX    TMP DP  RH WIND       PRES   REMARKS
BOZEMAN        CLOUDY    37  34  89 CALM      30.26S
DILLON         MOCLDY    37  34  89 SW3       30.24R
$$

MTZ009-010-012-014-046-048-049-054-270700-
EAST SLOPES AND CENTRAL MONTANA

CITY           SKY/WX    TMP DP  RH WIND       PRES   REMARKS
CUT BANK       CLEAR     31  26  82 SE5       30.19F
GREAT FALLS    CLEAR     31  29  92 S9        30.22F WCI  23
MALMSTROM AFB  CLEAR     30  29  95 SW5       30.24
HELENA         CLEAR     34  30  85 CALM      30.26S
$$

MTZ011-013-016-021-045-047-050-051-270700-
NORTH CENTRAL MONTANA

CITY           SKY/WX    TMP DP  RH WIND       PRES   REMARKS
HAVRE          CLEAR     31  27  85 CALM      30.24F
LEWISTOWN      CLOUDY    33  31  92 CALM      30.24F
CHINOOK          N/A     30  27  86 CALM      30.26S
FORT BENTON      N/A     34  28  80 S3        30.26S
$$

MTZ017>020-022>042-056>058-061-062-270700-
EASTERN PLAINS

CITY           SKY/WX    TMP DP  RH WIND       PRES   REMARKS
BAKER          LGT RAIN  39  36  89 NW13      30.23R WCI  31
BILLINGS       CLOUDY    37  34  89 S5        30.28S
GLASGOW        CLOUDY    40  35  83 W5        30.25S
JORDAN           N/A     38  36  92 W5        30.27R
LIVINGSTON     CLOUDY    37  34  89 SE3       30.24S
MILES CITY     CLOUDY    37  36  96 NW7       30.26S WCI  32
SIDNEY         CLOUDY    43  39  87 W9        30.24R
WOLF POINT     LGT RAIN  42  39  89 CALM      30.26R
BIG TIMBER       N/A     36  32  87 E5        30.26S
FORSYTH          N/A     36  36 100 W7        30.28S WCI  30
PLENTYWOOD       N/A     39  36  87 NW9       30.23S
POPLAR           N/A     41  39  93 W7        30.26S
$$

REGIONAL REPORTS...DAKOTAS

CITY           SKY/WX    TMP DP  RH WIND       PRES   REMARKS
WILLISTON      LGT RAIN  44  37  76 N9        30.22R
MINOT          CLOUDY    47  44  90 W7        30.18R
DICKINSON      LGT RAIN  43  42  97 N3        30.17R FOG
BEACH          LGT RAIN  39  39 100 NW13      30.22S WCI  32
CROSBY         FAIR      39  39 100 NW8       30.23S
WATFORD CITY   CLOUDY    45  41  87 NW7       30.19R
BISMARCK       MOCLDY    46  46 100 NE3       30.18S FOG
GRAND FORKS    CLEAR     45  28  51 W6        30.16R
FARGO          CLEAR     44  27  51 SE3       30.16R
BUFFALO SD       N/A     44  43  96 N13       30.11S
RAPID CITY     MOCLDY    44  42  93 N5        30.15R
$$

REGIONAL REPORTS...WYOMING/IDAHO/WASHINGTON

CITY           SKY/WX    TMP DP  RH WIND       PRES   REMARKS
GILLETTE       CLOUDY    35  34  96 N10       30.20R WCI  27
SHERIDAN       MIX PCPN  35  33  92 N8        30.25S WCI  29
BUFFALO WY     CLOUDY    34  33  96 N15G23    30.22R WCI  24
CODY           CLOUDY    34  30  86 N10       30.22S WCI  26
YELLOWSTONE LA   N/A     31  29  92 CALM      30.21R
IDAHO FALLS    CLOUDY    39  32  76 N7        30.19R
SALMON         CLOUDY    41  30  65 CALM      30.25S
BOISE          CLEAR     49  24  37 W5        30.21R
SPOKANE        PTCLDY    47  25  42 S6        30.24S
$$

REGIONAL REPORTS...ALBERTA

CITY           SKY/WX    TMP DP  RH WIND       PRES   REMARKS
EDMONTON       CLEAR     34  27  75 SE7       30.08F WCI  28
CALGARY        PTCLDY    36  27  69 S2        30.08F
LETHBRIDGE     CLEAR     37  30  75 S18       30.15S WCI  27
MEDICINE HAT   CLEAR     32  28  86 SW5       30.20S
$$

REGIONAL REPORTS...SASKATCHEWAN

CITY           SKY/WX    TMP DP  RH WIND       PRES   REMARKS
SWIFT CURRENT  MOCLDY    34  32  93 SW8       30.20S WCI  27
REGINA         CLOUDY    37  34  87 NW5       30.21F
SASKATOON      PTCLDY    30  30 100 SE3       30.22F
$$



USA.gov is the U.S. government's official web portal to all federal, state and local government web resources and services.